Location: Amherst
(42.3800°N, 72.5240°W)
Time: 11:39:16
(UTC-04:00)

ISS - Pass Details

Date: 20 May 2021
Orbit: 417 x 422 km, 51.6° (Epoch: 14 June)

Event Time Altitude Azimuth Distance (km) Brightness Sun altitude
Rises 21:30:48 0° 278° (W) 2,360 1.0 -12.8°
Reaches altitude 10° 21:33:15 10° 295° (WNW) 1,499 0.3 -13.2°
Maximum altitude 21:35:53 21° 346° (NNW) 1,014 -1.1 -13.5°
Drops below altitude 10° 21:38:31 10° 38° (NE) 1,504 -0.9 -13.9°
Sets 21:40:59 0° 55° (NE) 2,371 0.0 -14.2°
